Time,TemperatureF,DewpointF,PressureIn,WindDirection,WindDirectionDegrees,WindSpeedMPH,WindSpeedGustMPH,Humidity,HourlyPrecipIn,Conditions,Clouds,dailyrainin,SoftwareType,DateUTC
2013-12-28 00:01:00,37.3,31.4,30.15,SW,236,6.0,12.0,79,0.00,,,0.00,Wunderground v.1.15,2013-12-28 05:01:00,
2013-12-28 00:02:00,37.3,31.4,30.15,WSW,243,8.0,12.0,79,0.00,,,0.00,Wunderground v.1.15,2013-12-28 05:02:00,
2013-12-28 00:03:00,37.3,31.4,30.15,WSW,238,9.0,12.0,79,0.00,,,0.00,Wunderground v.1.15,2013-12-28 05:03:00,
2013-12-28 00:09:00,37.2,31.6,30.15,SW,236,6.0,16.0,80,0.00,,,0.00,Wunderground v.1.15,2013-12-28 05:09:00,
2013-12-28 00:14:00,37.1,31.5,30.15,SW,236,10.0,12.0,80,0.00,,,0.00,Wunderground v.1.15,2013-12-28 05:14:00,
2013-12-28 00:20:00,37.1,31.5,30.14,SW,221,7.0,8.0,80,0.00,,,0.00,Wunderground v.1.15,2013-12-28 05:20:00,
2013-12-28 00:26:00,37.0,31.4,30.14,SW,229,10.0,14.0,80,0.00,,,0.00,Wunderground v.1.15,2013-12-28 05:26:00,
2013-12-28 00:32:00,37.0,31.4,30.13,WSW,238,11.0,11.0,80,0.00,,,0.00,Wunderground v.1.15,2013-12-28 05:32:00,
2013-12-28 00:38:00,37.1,31.5,30.13,WSW,240,8.0,15.0,80,0.00,,,0.00,Wunderground v.1.15,2013-12-28 05:38:00,
2013-12-28 00:44:00,37.2,31.6,30.13,SW,224,12.0,15.0,80,0.00,,,0.00,Wunderground v.1.15,2013-12-28 05:44:00,
2013-12-28 00:49:00,37.2,31.3,30.13,WSW,254,12.0,15.0,79,0.00,,,0.00,Wunderground v.1.15,2013-12-28 05:49:00,
2013-12-28 00:55:00,37.2,31.3,30.13,WSW,237,11.0,12.0,79,0.00,,,0.00,Wunderground v.1.15,2013-12-28 05:55:00,
2013-12-28 01:01:00,37.1,31.2,30.13,WSW,253,9.0,9.0,79,0.00,,,0.00,Wunderground v.1.15,2013-12-28 06:01:00,
2013-12-28 01:07:00,37.1,31.2,30.12,SW,234,10.0,10.0,79,0.00,,,0.00,Wunderground v.1.15,2013-12-28 06:07:00,
2013-12-28 01:13:00,37.1,31.2,30.13,West,260,10.0,10.0,79,0.00,,,0.00,Wunderground v.1.15,2013-12-28 06:13:00,
2013-12-28 01:19:00,37.0,31.1,30.13,WSW,243,10.0,10.0,79,0.00,,,0.00,Wunderground v.1.15,2013-12-28 06:19:00,
2013-12-28 01:25:00,37.0,31.1,30.13,WSW,237,12.0,12.0,79,0.00,,,0.00,Wunderground v.1.15,2013-12-28 06:25:00,
2013-12-28 01:31:00,37.0,31.1,30.13,West,267,6.0,7.0,79,0.00,,,0.00,Wunderground v.1.15,2013-12-28 06:31:00,
2013-12-28 01:36:00,37.0,31.1,30.13,WSW,256,9.0,9.0,79,0.00,,,0.00,Wunderground v.1.15,2013-12-28 06:36:00,
2013-12-28 01:42:00,37.0,31.1,30.12,West,261,10.0,10.0,79,0.00,,,0.00,Wunderground v.1.15,2013-12-28 06:42:00,
2013-12-28 01:48:00,37.1,31.2,30.12,WSW,238,8.0,10.0,79,0.00,,,0.00,Wunderground v.1.15,2013-12-28 06:48:00,
2013-12-28 01:54:00,37.3,31.1,30.12,West,270,9.0,12.0,78,0.00,,,0.00,Wunderground v.1.15,2013-12-28 06:54:00,
2013-12-28 02:00:00,37.3,31.1,30.12,WSW,240,6.0,8.0,78,0.00,,,0.00,Wunderground v.1.15,2013-12-28 07:00:00,
2013-12-28 02:05:00,37.3,31.1,30.12,WSW,251,10.0,16.0,78,0.00,,,0.00,Wunderground v.1.15,2013-12-28 07:05:00,
2013-12-28 02:10:00,37.5,31.3,30.12,West,275,9.0,10.0,78,0.00,,,0.00,Wunderground v.1.15,2013-12-28 07:10:00,
2013-12-28 02:15:00,37.6,31.4,30.12,SW,221,8.0,13.0,78,0.00,,,0.00,Wunderground v.1.15,2013-12-28 07:15:00,
2013-12-28 02:20:00,37.8,31.2,30.12,West,266,6.0,9.0,77,0.00,,,0.00,Wunderground v.1.15,2013-12-28 07:20:00,
2013-12-28 02:25:00,37.8,31.2,30.12,West,269,7.0,13.0,77,0.00,,,0.00,Wunderground v.1.15,2013-12-28 07:25:00,
2013-12-28 02:30:00,37.9,31.3,30.12,WSW,238,10.0,10.0,77,0.00,,,0.00,Wunderground v.1.15,2013-12-28 07:30:00,
2013-12-28 02:35:00,37.8,31.2,30.11,SW,224,7.0,14.0,77,0.00,,,0.00,Wunderground v.1.15,2013-12-28 07:35:00,
2013-12-28 02:40:00,37.8,31.2,30.12,SW,224,8.0,8.0,77,0.00,,,0.00,Wunderground v.1.15,2013-12-28 07:40:00,
2013-12-28 02:45:00,37.9,31.3,30.12,WSW,250,10.0,14.0,77,0.00,,,0.00,Wunderground v.1.15,2013-12-28 07:45:00,
2013-12-28 02:50:00,38.0,31.4,30.12,SW,233,7.0,9.0,77,0.00,,,0.00,Wunderground v.1.15,2013-12-28 07:50:00,
2013-12-28 02:55:00,38.1,31.2,30.12,WSW,248,5.0,13.0,76,0.00,,,0.00,Wunderground v.1.15,2013-12-28 07:55:00,
2013-12-28 03:01:00,38.3,31.4,30.11,SW,232,15.0,15.0,76,0.00,,,0.00,Wunderground v.1.15,2013-12-28 08:01:00,
2013-12-28 03:05:00,38.4,31.5,30.11,WSW,257,7.0,15.0,76,0.00,,,0.00,Wunderground v.1.15,2013-12-28 08:05:00,
2013-12-28 03:11:00,38.5,31.3,30.11,West,259,8.0,13.0,75,0.00,,,0.00,Wunderground v.1.15,2013-12-28 08:11:00,
2013-12-28 03:15:00,38.7,31.5,30.11,West,259,8.0,13.0,75,0.00,,,0.00,Wunderground v.1.15,2013-12-28 08:15:00,
2013-12-28 03:20:00,39.1,31.5,30.11,WSW,254,7.0,10.0,74,0.00,,,0.00,Wunderground v.1.15,2013-12-28 08:20:00,
2013-12-28 03:25:00,39.3,31.7,30.11,WSW,250,10.0,15.0,74,0.00,,,0.00,Wunderground v.1.15,2013-12-28 08:25:00,
2013-12-28 03:30:00,39.6,31.7,30.11,WNW,287,8.0,14.0,73,0.00,,,0.00,Wunderground v.1.15,2013-12-28 08:30:00,
2013-12-28 03:36:00,39.7,31.8,30.11,WSW,257,11.0,18.0,73,0.00,,,0.00,Wunderground v.1.15,2013-12-28 08:36:00,
2013-12-28 03:41:00,39.8,31.8,30.11,West,269,6.0,15.0,73,0.00,,,0.00,Wunderground v.1.15,2013-12-28 08:41:00,
2013-12-28 03:46:00,39.8,31.8,30.10,West,259,14.0,17.0,73,0.00,,,0.00,Wunderground v.1.15,2013-12-28 08:46:00,
2013-12-28 03:51:00,40.1,31.8,30.10,West,262,9.0,14.0,72,0.00,,,0.00,Wunderground v.1.15,2013-12-28 08:51:00,
2013-12-28 03:56:00,40.0,31.7,30.10,WSW,251,9.0,14.0,72,0.00,,,0.00,Wunderground v.1.15,2013-12-28 08:56:00,
2013-12-28 04:01:00,39.9,31.6,30.10,WSW,250,11.0,11.0,72,0.00,,,0.00,Wunderground v.1.15,2013-12-28 09:01:00,
2013-12-28 04:06:00,40.0,31.7,30.10,WSW,254,10.0,19.0,72,0.00,,,0.00,Wunderground v.1.15,2013-12-28 09:06:00,
2013-12-28 04:11:00,40.0,31.7,30.10,West,275,6.0,12.0,72,0.00,,,0.00,Wunderground v.1.15,2013-12-28 09:11:00,
2013-12-28 04:16:00,39.8,31.8,30.09,WSW,256,16.0,17.0,73,0.00,,,0.00,Wunderground v.1.15,2013-12-28 09:16:00,
2013-12-28 04:21:00,39.7,31.8,30.09,WSW,255,7.0,16.0,73,0.00,,,0.00,Wunderground v.1.15,2013-12-28 09:21:00,
2013-12-28 04:26:00,39.6,31.7,30.10,West,260,8.0,16.0,73,0.00,,,0.00,Wunderground v.1.15,2013-12-28 09:26:00,
2013-12-28 04:31:00,39.6,31.7,30.10,West,260,8.0,14.0,73,0.00,,,0.00,Wunderground v.1.15,2013-12-28 09:31:00,
2013-12-28 04:36:00,39.4,31.8,30.10,West,261,4.0,14.0,74,0.00,,,0.00,Wunderground v.1.15,2013-12-28 09:36:00,
2013-12-28 04:41:00,39.3,31.7,30.10,SW,224,12.0,12.0,74,0.00,,,0.00,Wunderground v.1.15,2013-12-28 09:41:00,
2013-12-28 04:46:00,39.3,31.7,30.10,WSW,257,7.0,15.0,74,0.00,,,0.00,Wunderground v.1.15,2013-12-28 09:46:00,
2013-12-28 04:51:00,39.2,31.6,30.11,WSW,251,13.0,13.0,74,0.00,,,0.00,Wunderground v.1.15,2013-12-28 09:51:00,
2013-12-28 04:56:00,39.1,31.5,30.10,West,272,4.0,13.0,74,0.00,,,0.00,Wunderground v.1.15,2013-12-28 09:56:00,
2013-12-28 05:01:00,38.9,31.6,30.10,West,263,13.0,13.0,75,0.00,,,0.00,Wunderground v.1.15,2013-12-28 10:01:00,
2013-12-28 05:06:00,38.8,31.6,30.11,West,276,11.0,13.0,75,0.00,,,0.00,Wunderground v.1.15,2013-12-28 10:06:00,
2013-12-28 05:11:00,38.8,31.6,30.11,West,268,12.0,12.0,75,0.00,,,0.00,Wunderground v.1.15,2013-12-28 10:11:00,
2013-12-28 05:16:00,38.7,31.8,30.11,WNW,284,6.0,12.0,76,0.00,,,0.00,Wunderground v.1.15,2013-12-28 10:16:00,
2013-12-28 05:21:00,38.6,31.7,30.11,WNW,293,11.0,13.0,76,0.00,,,0.00,Wunderground v.1.15,2013-12-28 10:21:00,
2013-12-28 05:26:00,38.5,31.6,30.11,NW,307,8.0,13.0,76,0.00,,,0.00,Wunderground v.1.15,2013-12-28 10:26:00,
2013-12-28 05:31:00,38.4,31.5,30.11,West,263,7.0,8.0,76,0.00,,,0.00,Wunderground v.1.15,2013-12-28 10:31:00,
2013-12-28 05:36:00,38.4,31.5,30.11,WSW,252,7.0,13.0,76,0.00,,,0.00,Wunderground v.1.15,2013-12-28 10:36:00,
2013-12-28 05:41:00,38.4,31.5,30.12,West,261,7.0,8.0,76,0.00,,,0.00,Wunderground v.1.15,2013-12-28 10:41:00,
2013-12-28 05:46:00,38.3,31.4,30.12,West,259,6.0,11.0,76,0.00,,,0.00,Wunderground v.1.15,2013-12-28 10:46:00,
2013-12-28 05:51:00,38.2,31.3,30.12,West,262,7.0,8.0,76,0.00,,,0.00,Wunderground v.1.15,2013-12-28 10:51:00,
2013-12-28 05:56:00,38.1,31.2,30.12,WSW,250,5.0,8.0,76,0.00,,,0.00,Wunderground v.1.15,2013-12-28 10:56:00,
2013-12-28 06:01:00,38.0,31.4,30.12,West,272,9.0,9.0,77,0.00,,,0.00,Wunderground v.1.15,2013-12-28 11:01:00,
2013-12-28 06:02:00,38.0,31.4,30.12,WNW,300,6.0,9.0,77,0.00,,,0.00,Wunderground v.1.15,2013-12-28 11:02:00,
2013-12-28 06:07:00,38.0,31.4,30.13,West,268,7.0,9.0,77,0.00,,,0.00,Wunderground v.1.15,2013-12-28 11:07:00,
2013-12-28 06:12:00,38.0,31.4,30.13,West,267,9.0,12.0,77,0.00,,,0.00,Wunderground v.1.15,2013-12-28 11:12:00,
2013-12-28 06:17:00,37.8,31.2,30.13,WSW,248,6.0,12.0,77,0.00,,,0.00,Wunderground v.1.15,2013-12-28 11:17:00,
2013-12-28 06:22:00,37.7,31.1,30.13,West,259,4.0,7.0,77,0.00,,,0.00,Wunderground v.1.15,2013-12-28 11:22:00,
2013-12-28 06:27:00,37.4,31.2,30.13,SW,231,9.0,9.0,78,0.00,,,0.00,Wunderground v.1.15,2013-12-28 11:27:00,
2013-12-28 06:32:00,37.3,31.1,30.13,WSW,251,6.0,10.0,78,0.00,,,0.00,Wunderground v.1.15,2013-12-28 11:32:00,
2013-12-28 06:37:00,37.2,31.0,30.13,WSW,246,4.0,10.0,78,0.00,,,0.00,Wunderground v.1.15,2013-12-28 11:37:00,
2013-12-28 06:42:00,37.1,30.9,30.13,WSW,249,5.0,8.0,78,0.00,,,0.00,Wunderground v.1.15,2013-12-28 11:42:00,
2013-12-28 06:47:00,37.0,31.1,30.14,WSW,241,4.0,11.0,79,0.00,,,0.00,Wunderground v.1.15,2013-12-28 11:47:00,
2013-12-28 06:52:00,36.9,31.0,30.14,West,270,4.0,6.0,79,0.00,,,0.00,Wunderground v.1.15,2013-12-28 11:52:00,
2013-12-28 06:57:00,36.8,30.9,30.14,WSW,250,5.0,7.0,79,0.00,,,0.00,Wunderground v.1.15,2013-12-28 11:57:00,
2013-12-28 07:02:00,36.9,31.0,30.15,WSW,248,5.0,9.0,79,0.00,,,0.00,Wunderground v.1.15,2013-12-28 12:02:00,
2013-12-28 07:07:00,36.8,30.9,30.15,WSW,254,6.0,9.0,79,0.00,,,0.00,Wunderground v.1.15,2013-12-28 12:07:00,
2013-12-28 07:12:00,36.7,31.1,30.15,WSW,255,4.0,5.0,80,0.00,,,0.00,Wunderground v.1.15,2013-12-28 12:12:00,
2013-12-28 07:17:00,36.6,31.0,30.15,WSW,244,4.0,7.0,80,0.00,,,0.00,Wunderground v.1.15,2013-12-28 12:17:00,
2013-12-28 07:22:00,36.5,30.9,30.15,WSW,242,3.0,6.0,80,0.00,,,0.00,Wunderground v.1.15,2013-12-28 12:22:00,
2013-12-28 07:27:00,36.2,30.6,30.15,WSW,245,7.0,7.0,80,0.00,,,0.00,Wunderground v.1.15,2013-12-28 12:27:00,
2013-12-28 07:32:00,36.4,31.1,30.15,West,260,8.0,8.0,81,0.00,,,0.00,Wunderground v.1.15,2013-12-28 12:32:00,
2013-12-28 07:37:00,36.4,30.8,30.15,WSW,256,4.0,8.0,80,0.00,,,0.00,Wunderground v.1.15,2013-12-28 12:37:00,
2013-12-28 07:42:00,36.2,30.9,30.15,WSW,250,4.0,8.0,81,0.00,,,0.00,Wunderground v.1.15,2013-12-28 12:42:00,
2013-12-28 07:47:00,36.1,30.5,30.16,WSW,250,4.0,8.0,80,0.00,,,0.00,Wunderground v.1.15,2013-12-28 12:47:00,
2013-12-28 07:52:00,36.0,30.7,30.16,SW,230,5.0,6.0,81,0.00,,,0.00,Wunderground v.1.15,2013-12-28 12:52:00,
2013-12-28 07:57:00,36.0,30.7,30.16,WSW,257,2.0,6.0,81,0.00,,,0.00,Wunderground v.1.15,2013-12-28 12:57:00,
2013-12-28 08:02:00,35.8,30.5,30.16,SW,223,4.0,5.0,81,0.00,,,0.00,Wunderground v.1.15,2013-12-28 13:02:00,
2013-12-28 08:07:00,35.8,30.5,30.17,WSW,238,4.0,6.0,81,0.00,,,0.00,Wunderground v.1.15,2013-12-28 13:07:00,
2013-12-28 08:12:00,35.7,30.4,30.17,SW,235,5.0,5.0,81,0.00,,,0.00,Wunderground v.1.15,2013-12-28 13:12:00,
2013-12-28 08:17:00,35.7,30.7,30.17,WSW,242,4.0,6.0,82,0.00,,,0.00,Wunderground v.1.15,2013-12-28 13:17:00,
2013-12-28 08:22:00,35.5,30.5,30.17,SW,227,5.0,5.0,82,0.00,,,0.00,Wunderground v.1.15,2013-12-28 13:22:00,
2013-12-28 08:27:00,35.4,30.5,30.17,WSW,240,1.0,5.0,82,0.00,,,0.00,Wunderground v.1.15,2013-12-28 13:27:00,
2013-12-28 08:32:00,35.3,30.4,30.17,WSW,258,3.0,3.0,82,0.00,,,0.00,Wunderground v.1.15,2013-12-28 13:32:00,
2013-12-28 08:37:00,35.3,30.4,30.17,WSW,254,2.0,4.0,82,0.00,,,0.00,Wunderground v.1.15,2013-12-28 13:37:00,
2013-12-28 08:42:00,35.3,30.7,30.17,WSW,248,2.0,3.0,83,0.00,,,0.00,Wunderground v.1.15,2013-12-28 13:42:00,
2013-12-28 08:47:00,35.3,30.7,30.17,SW,235,4.0,5.0,83,0.00,,,0.00,Wunderground v.1.15,2013-12-28 13:47:00,
2013-12-28 08:52:00,35.5,30.8,30.17,WSW,246,2.0,4.0,83,0.00,,,0.00,Wunderground v.1.15,2013-12-28 13:52:00,
2013-12-28 08:57:00,35.7,30.7,30.17,WSW,238,4.0,8.0,82,0.00,,,0.00,Wunderground v.1.15,2013-12-28 13:57:00,
2013-12-28 09:02:00,35.9,30.9,30.16,West,259,4.0,7.0,82,0.00,,,0.00,Wunderground v.1.15,2013-12-28 14:02:00,
2013-12-28 09:07:00,36.1,31.1,30.16,SW,229,3.0,7.0,82,0.00,,,0.00,Wunderground v.1.15,2013-12-28 14:07:00,
2013-12-28 09:12:00,36.4,31.4,30.16,West,272,4.0,8.0,82,0.00,,,0.00,Wunderground v.1.15,2013-12-28 14:12:00,
2013-12-28 09:17:00,36.7,31.4,30.16,West,275,4.0,8.0,81,0.00,,,0.00,Wunderground v.1.15,2013-12-28 14:17:00,
2013-12-28 09:22:00,36.9,31.6,30.16,WSW,246,2.0,7.0,81,0.00,,,0.00,Wunderground v.1.15,2013-12-28 14:22:00,
2013-12-28 09:27:00,37.1,31.8,30.16,WSW,240,7.0,7.0,81,0.00,,,0.00,Wunderground v.1.15,2013-12-28 14:27:00,
2013-12-28 09:32:00,37.3,31.7,30.17,WSW,250,5.0,7.0,80,0.00,,,0.00,Wunderground v.1.15,2013-12-28 14:32:00,
2013-12-28 09:37:00,37.7,32.1,30.16,SW,223,4.0,8.0,80,0.00,,,0.00,Wunderground v.1.15,2013-12-28 14:37:00,
2013-12-28 09:42:00,37.8,32.2,30.16,SW,230,5.0,7.0,80,0.00,,,0.00,Wunderground v.1.15,2013-12-28 14:42:00,
2013-12-28 09:48:00,38.0,32.1,30.16,WSW,242,8.0,9.0,79,0.00,,,0.00,Wunderground v.1.15,2013-12-28 14:48:00,
2013-12-28 09:53:00,38.3,32.4,30.16,WSW,258,3.0,6.0,79,0.00,,,0.00,Wunderground v.1.15,2013-12-28 14:53:00,
2013-12-28 09:58:00,38.6,32.3,30.16,SW,227,6.0,10.0,78,0.00,,,0.00,Wunderground v.1.15,2013-12-28 14:58:00,
2013-12-28 10:03:00,38.8,32.5,30.15,West,273,8.0,9.0,78,0.00,,,0.00,Wunderground v.1.15,2013-12-28 15:03:00,
2013-12-28 10:08:00,38.9,32.6,30.15,WSW,240,5.0,11.0,78,0.00,,,0.00,Wunderground v.1.15,2013-12-28 15:08:00,
2013-12-28 10:13:00,39.2,32.9,30.15,West,261,5.0,9.0,78,0.00,,,0.00,Wunderground v.1.15,2013-12-28 15:13:00,
2013-12-28 10:18:00,39.5,32.9,30.15,SW,225,6.0,9.0,77,0.00,,,0.00,Wunderground v.1.15,2013-12-28 15:18:00,
2013-12-28 10:23:00,39.7,33.1,30.14,SW,225,5.0,8.0,77,0.00,,,0.00,Wunderground v.1.15,2013-12-28 15:23:00,
2013-12-28 10:28:00,40.0,33.0,30.15,WSW,244,4.0,9.0,76,0.00,,,0.00,Wunderground v.1.15,2013-12-28 15:28:00,
2013-12-28 10:33:00,40.3,33.3,30.15,WSW,246,5.0,7.0,76,0.00,,,0.00,Wunderground v.1.15,2013-12-28 15:33:00,
2013-12-28 10:38:00,40.5,33.2,30.15,WSW,248,5.0,11.0,75,0.00,,,0.00,Wunderground v.1.15,2013-12-28 15:38:00,
2013-12-28 10:43:00,40.7,33.4,30.15,SW,214,7.0,9.0,75,0.00,,,0.00,Wunderground v.1.15,2013-12-28 15:43:00,
2013-12-28 10:48:00,40.8,33.2,30.15,WSW,252,7.0,10.0,74,0.00,,,0.00,Wunderground v.1.15,2013-12-28 15:48:00,
2013-12-28 10:53:00,40.9,33.2,30.15,WSW,258,8.0,9.0,74,0.00,,,0.00,Wunderground v.1.15,2013-12-28 15:53:00,
2013-12-28 10:58:00,41.1,33.4,30.15,SW,232,4.0,9.0,74,0.00,,,0.00,Wunderground v.1.15,2013-12-28 15:58:00,
2013-12-28 11:03:00,41.4,33.4,30.15,WSW,250,5.0,8.0,73,0.00,,,0.00,Wunderground v.1.15,2013-12-28 16:03:00,
2013-12-28 11:08:00,41.6,33.6,30.15,WSW,247,5.0,11.0,73,0.00,,,0.00,Wunderground v.1.15,2013-12-28 16:08:00,
2013-12-28 11:13:00,41.7,33.7,30.14,WSW,257,5.0,8.0,73,0.00,,,0.00,Wunderground v.1.15,2013-12-28 16:13:00,
2013-12-28 11:18:00,42.0,34.0,30.14,SW,227,9.0,10.0,73,0.00,,,0.00,Wunderground v.1.15,2013-12-28 16:18:00,
2013-12-28 11:23:00,42.2,33.8,30.13,WSW,258,7.0,10.0,72,0.00,,,0.00,Wunderground v.1.15,2013-12-28 16:23:00,
2013-12-28 11:28:00,42.4,34.0,30.13,SW,229,9.0,11.0,72,0.00,,,0.00,Wunderground v.1.15,2013-12-28 16:28:00,
2013-12-28 11:33:00,42.7,33.9,30.13,SW,234,4.0,8.0,71,0.00,,,0.00,Wunderground v.1.15,2013-12-28 16:33:00,
2013-12-28 11:38:00,43.0,34.2,30.13,West,264,9.0,12.0,71,0.00,,,0.00,Wunderground v.1.15,2013-12-28 16:38:00,
2013-12-28 11:43:00,43.2,34.1,30.12,SW,232,10.0,11.0,70,0.00,,,0.00,Wunderground v.1.15,2013-12-28 16:43:00,
2013-12-28 11:48:00,43.3,34.2,30.12,West,259,5.0,11.0,70,0.00,,,0.00,Wunderground v.1.15,2013-12-28 16:48:00,
2013-12-28 11:53:00,43.6,34.5,30.12,SSW,211,7.0,9.0,70,0.00,,,0.00,Wunderground v.1.15,2013-12-28 16:53:00,
2013-12-28 11:58:00,43.7,34.6,30.12,SW,217,6.0,9.0,70,0.00,,,0.00,Wunderground v.1.15,2013-12-28 16:58:00,
2013-12-28 12:03:00,43.8,34.3,30.12,SW,220,4.0,13.0,69,0.00,,,0.00,Wunderground v.1.15,2013-12-28 17:03:00,
2013-12-28 12:08:00,44.0,34.8,30.12,South,188,6.0,13.0,70,0.00,,,0.00,Wunderground v.1.15,2013-12-28 17:08:00,
2013-12-28 12:13:00,43.9,34.7,30.12,SSW,213,4.0,6.0,70,0.00,,,0.00,Wunderground v.1.15,2013-12-28 17:13:00,
2013-12-28 12:18:00,44.1,34.9,30.11,WSW,249,9.0,9.0,70,0.00,,,0.00,Wunderground v.1.15,2013-12-28 17:18:00,
2013-12-28 12:23:00,44.0,34.8,30.11,SW,236,8.0,9.0,70,0.00,,,0.00,Wunderground v.1.15,2013-12-28 17:23:00,
2013-12-28 12:29:00,44.1,34.6,30.10,SW,225,4.0,11.0,69,0.00,,,0.00,Wunderground v.1.15,2013-12-28 17:29:00,
2013-12-28 12:34:00,44.4,34.9,30.10,West,259,3.0,6.0,69,0.00,,,0.00,Wunderground v.1.15,2013-12-28 17:34:00,
2013-12-28 12:39:00,44.7,34.8,30.10,West,278,7.0,12.0,68,0.00,,,0.00,Wunderground v.1.15,2013-12-28 17:39:00,
2013-12-28 12:44:00,44.9,35.0,30.09,WSW,247,6.0,11.0,68,0.00,,,0.00,Wunderground v.1.15,2013-12-28 17:44:00,
2013-12-28 12:49:00,45.2,34.9,30.09,SW,221,7.0,11.0,67,0.00,,,0.00,Wunderground v.1.15,2013-12-28 17:49:00,
2013-12-28 12:54:00,45.5,35.2,30.09,SSW,201,4.0,10.0,67,0.00,,,0.00,Wunderground v.1.15,2013-12-28 17:54:00,
2013-12-28 12:59:00,45.6,35.3,30.09,South,189,4.0,10.0,67,0.00,,,0.00,Wunderground v.1.15,2013-12-28 17:59:00,
2013-12-28 13:04:00,45.5,35.2,30.09,SSW,213,4.0,10.0,67,0.00,,,0.00,Wunderground v.1.15,2013-12-28 18:04:00,
2013-12-28 13:09:00,45.5,35.2,30.08,SSW,212,4.0,12.0,67,0.00,,,0.00,Wunderground v.1.15,2013-12-28 18:09:00,
2013-12-28 13:14:00,45.8,35.8,30.08,South,180,7.0,10.0,68,0.00,,,0.00,Wunderground v.1.15,2013-12-28 18:14:00,
2013-12-28 13:19:00,45.7,35.7,30.08,SSW,209,6.0,10.0,68,0.00,,,0.00,Wunderground v.1.15,2013-12-28 18:19:00,
2013-12-28 13:24:00,45.5,35.9,30.08,SSW,198,4.0,8.0,69,0.00,,,0.00,Wunderground v.1.15,2013-12-28 18:24:00,
2013-12-28 13:29:00,45.5,35.9,30.07,South,180,6.0,8.0,69,0.00,,,0.00,Wunderground v.1.15,2013-12-28 18:29:00,
2013-12-28 13:34:00,45.4,35.8,30.07,SW,214,4.0,8.0,69,0.00,,,0.00,Wunderground v.1.15,2013-12-28 18:34:00,
2013-12-28 13:39:00,45.4,35.8,30.07,SSW,196,5.0,11.0,69,0.00,,,0.00,Wunderground v.1.15,2013-12-28 18:39:00,
2013-12-28 13:44:00,45.4,35.8,30.07,South,170,6.0,10.0,69,0.00,,,0.00,Wunderground v.1.15,2013-12-28 18:44:00,
2013-12-28 13:49:00,45.2,36.0,30.07,South,186,5.0,10.0,70,0.00,,,0.00,Wunderground v.1.15,2013-12-28 18:49:00,
2013-12-28 13:54:00,45.1,35.9,30.07,South,190,8.0,10.0,70,0.00,,,0.00,Wunderground v.1.15,2013-12-28 18:54:00,
2013-12-28 13:59:00,45.1,35.9,30.06,South,190,8.0,11.0,70,0.00,,,0.00,Wunderground v.1.15,2013-12-28 18:59:00,
2013-12-28 14:04:00,45.4,36.2,30.06,WSW,252,8.0,9.0,70,0.00,,,0.00,Wunderground v.1.15,2013-12-28 19:04:00,
2013-12-28 14:09:00,45.6,36.0,30.06,SW,214,4.0,10.0,69,0.00,,,0.00,Wunderground v.1.15,2013-12-28 19:09:00,
2013-12-28 14:14:00,45.6,36.0,30.05,SSW,198,2.0,10.0,69,0.00,,,0.00,Wunderground v.1.15,2013-12-28 19:14:00,
2013-12-28 14:19:00,45.7,36.1,30.05,SW,222,3.0,11.0,69,0.00,,,0.00,Wunderground v.1.15,2013-12-28 19:19:00,
2013-12-28 14:24:00,45.8,36.6,30.05,South,189,4.0,11.0,70,0.00,,,0.00,Wunderground v.1.15,2013-12-28 19:24:00,
2013-12-28 14:29:00,46.1,36.5,30.04,WSW,242,7.0,11.0,69,0.00,,,0.00,Wunderground v.1.15,2013-12-28 19:29:00,
2013-12-28 14:34:00,46.3,36.7,30.04,SSW,194,4.0,9.0,69,0.00,,,0.00,Wunderground v.1.15,2013-12-28 19:34:00,
2013-12-28 14:39:00,46.3,36.3,30.04,SSW,200,6.0,9.0,68,0.00,,,0.00,Wunderground v.1.15,2013-12-28 19:39:00,
2013-12-28 14:44:00,46.4,36.8,30.04,WSW,238,4.0,7.0,69,0.00,,,0.00,Wunderground v.1.15,2013-12-28 19:44:00,
2013-12-28 14:49:00,46.7,36.7,30.04,SW,234,5.0,9.0,68,0.00,,,0.00,Wunderground v.1.15,2013-12-28 19:49:00,
2013-12-28 14:54:00,46.8,36.4,30.05,SW,233,5.0,6.0,67,0.00,,,0.00,Wunderground v.1.15,2013-12-28 19:54:00,
2013-12-28 14:59:00,47.0,37.0,30.06,SW,219,8.0,10.0,68,0.00,,,0.00,Wunderground v.1.15,2013-12-28 19:59:00,
2013-12-28 15:04:00,46.9,36.9,30.06,SW,226,7.0,11.0,68,0.00,,,0.00,Wunderground v.1.15,2013-12-28 20:04:00,
2013-12-28 15:09:00,46.9,36.9,30.06,South,186,9.0,11.0,68,0.00,,,0.00,Wunderground v.1.15,2013-12-28 20:09:00,
2013-12-28 15:14:00,47.0,37.0,30.06,SW,225,8.0,10.0,68,0.00,,,0.00,Wunderground v.1.15,2013-12-28 20:14:00,
2013-12-28 15:19:00,47.0,36.6,30.06,WSW,238,6.0,13.0,67,0.00,,,0.00,Wunderground v.1.15,2013-12-28 20:19:00,
2013-12-28 15:24:00,47.1,37.1,30.05,SW,225,4.0,9.0,68,0.00,,,0.00,Wunderground v.1.15,2013-12-28 20:24:00,
2013-12-28 15:29:00,47.3,36.9,30.06,SW,215,8.0,10.0,67,0.00,,,0.00,Wunderground v.1.15,2013-12-28 20:29:00,
2013-12-28 15:34:00,47.2,36.8,30.05,SW,215,6.0,12.0,67,0.00,,,0.00,Wunderground v.1.15,2013-12-28 20:34:00,
2013-12-28 15:39:00,47.2,36.4,30.06,SW,232,7.0,14.0,66,0.00,,,0.00,Wunderground v.1.15,2013-12-28 20:39:00,
2013-12-28 15:44:00,47.2,36.4,30.06,South,185,10.0,13.0,66,0.00,,,0.00,Wunderground v.1.15,2013-12-28 20:44:00,
2013-12-28 15:49:00,47.3,36.5,30.06,SSW,213,7.0,13.0,66,0.00,,,0.00,Wunderground v.1.15,2013-12-28 20:49:00,
2013-12-28 15:54:00,47.4,36.2,30.05,SSW,206,8.0,10.0,65,0.00,,,0.00,Wunderground v.1.15,2013-12-28 20:54:00,
2013-12-28 15:59:00,47.4,36.2,30.06,SSW,200,6.0,11.0,65,0.00,,,0.00,Wunderground v.1.15,2013-12-28 20:59:00,
2013-12-28 16:04:00,47.2,36.0,30.05,SW,223,7.0,11.0,65,0.00,,,0.00,Wunderground v.1.15,2013-12-28 21:04:00,
2013-12-28 16:09:00,47.1,35.9,30.05,SW,225,3.0,14.0,65,0.00,,,0.00,Wunderground v.1.15,2013-12-28 21:09:00,
2013-12-28 16:15:00,46.9,36.1,30.05,SW,223,4.0,13.0,66,0.00,,,0.00,Wunderground v.1.15,2013-12-28 21:15:00,
2013-12-28 16:20:00,46.7,35.9,30.05,SW,228,3.0,13.0,66,0.00,,,0.00,Wunderground v.1.15,2013-12-28 21:20:00,
2013-12-28 16:25:00,46.5,36.1,30.05,SW,215,3.0,7.0,67,0.00,,,0.00,Wunderground v.1.15,2013-12-28 21:25:00,
2013-12-28 16:30:00,46.5,36.1,30.05,SSW,206,5.0,8.0,67,0.00,,,0.00,Wunderground v.1.15,2013-12-28 21:30:00,
2013-12-28 16:35:00,46.2,36.2,30.05,SSW,208,3.0,10.0,68,0.00,,,0.00,Wunderground v.1.15,2013-12-28 21:35:00,
2013-12-28 16:40:00,45.8,35.8,30.05,SW,226,4.0,10.0,68,0.00,,,0.00,Wunderground v.1.15,2013-12-28 21:40:00,
2013-12-28 16:45:00,45.3,35.7,30.05,SW,220,4.0,8.0,69,0.00,,,0.00,Wunderground v.1.15,2013-12-28 21:45:00,
2013-12-28 16:50:00,45.0,35.8,30.05,SW,221,4.0,8.0,70,0.00,,,0.00,Wunderground v.1.15,2013-12-28 21:50:00,
2013-12-28 16:55:00,44.6,35.4,30.04,SW,214,5.0,7.0,70,0.00,,,0.00,Wunderground v.1.15,2013-12-28 21:55:00,
2013-12-28 17:00:00,44.4,35.6,30.04,WSW,237,5.0,7.0,71,0.00,,,0.00,Wunderground v.1.15,2013-12-28 22:00:00,
2013-12-28 17:05:00,44.1,35.6,30.04,South,190,7.0,9.0,72,0.00,,,0.00,Wunderground v.1.15,2013-12-28 22:05:00,
2013-12-28 17:10:00,43.8,35.4,30.04,SSW,192,5.0,9.0,72,0.00,,,0.00,Wunderground v.1.15,2013-12-28 22:10:00,
2013-12-28 17:15:00,43.5,35.4,30.04,SSW,207,4.0,6.0,73,0.00,,,0.00,Wunderground v.1.15,2013-12-28 22:15:00,
2013-12-28 17:20:00,43.5,35.4,30.04,SW,218,7.0,7.0,73,0.00,,,0.00,Wunderground v.1.15,2013-12-28 22:20:00,
2013-12-28 17:25:00,43.3,35.2,30.03,SW,229,3.0,7.0,73,0.00,,,0.00,Wunderground v.1.15,2013-12-28 22:25:00,
2013-12-28 17:30:00,43.1,35.4,30.03,SSW,210,6.0,6.0,74,0.00,,,0.00,Wunderground v.1.15,2013-12-28 22:30:00,
2013-12-28 17:35:00,43.0,35.3,30.04,SW,217,9.0,9.0,74,0.00,,,0.00,Wunderground v.1.15,2013-12-28 22:35:00,
2013-12-28 17:40:00,42.9,35.2,30.04,WSW,239,4.0,5.0,74,0.00,,,0.00,Wunderground v.1.15,2013-12-28 22:40:00,
2013-12-28 17:45:00,42.7,35.0,30.03,SSW,200,4.0,8.0,74,0.00,,,0.00,Wunderground v.1.15,2013-12-28 22:45:00,
2013-12-28 17:50:00,42.6,35.2,30.03,SW,225,5.0,5.0,75,0.00,,,0.00,Wunderground v.1.15,2013-12-28 22:50:00,
2013-12-28 17:55:00,42.5,35.1,30.03,SSW,207,5.0,9.0,75,0.00,,,0.00,Wunderground v.1.15,2013-12-28 22:55:00,
2013-12-28 18:00:00,42.3,34.9,30.04,SSW,212,5.0,5.0,75,0.00,,,0.00,Wunderground v.1.15,2013-12-28 23:00:00,
2013-12-28 18:06:00,42.3,34.9,30.04,SW,227,5.0,7.0,75,0.00,,,0.00,Wunderground v.1.15,2013-12-28 23:06:00,
2013-12-28 18:11:00,42.2,34.8,30.03,SSW,193,7.0,9.0,75,0.00,,,0.00,Wunderground v.1.15,2013-12-28 23:11:00,
2013-12-28 18:16:00,42.2,34.8,30.03,SW,227,5.0,9.0,75,0.00,,,0.00,Wunderground v.1.15,2013-12-28 23:16:00,
2013-12-28 18:21:00,42.0,34.6,30.03,WSW,240,4.0,5.0,75,0.00,,,0.00,Wunderground v.1.15,2013-12-28 23:21:00,
2013-12-28 18:26:00,42.0,34.6,30.02,SW,236,6.0,9.0,75,0.00,,,0.00,Wunderground v.1.15,2013-12-28 23:26:00,
2013-12-28 18:31:00,42.1,34.7,30.02,South,191,7.0,7.0,75,0.00,,,0.00,Wunderground v.1.15,2013-12-28 23:31:00,
2013-12-28 18:36:00,42.0,34.6,30.02,SW,214,5.0,11.0,75,0.00,,,0.00,Wunderground v.1.15,2013-12-28 23:36:00,
2013-12-28 18:41:00,42.0,34.6,30.02,SW,224,5.0,7.0,75,0.00,,,0.00,Wunderground v.1.15,2013-12-28 23:41:00,
2013-12-28 18:46:00,42.0,34.6,30.03,SW,230,4.0,12.0,75,0.00,,,0.00,Wunderground v.1.15,2013-12-28 23:46:00,
2013-12-28 18:51:00,42.1,34.4,30.03,SSW,207,4.0,7.0,74,0.00,,,0.00,Wunderground v.1.15,2013-12-28 23:51:00,
2013-12-28 18:56:00,42.1,34.4,30.03,SW,231,6.0,12.0,74,0.00,,,0.00,Wunderground v.1.15,2013-12-28 23:56:00,
2013-12-28 19:01:00,42.1,34.4,30.03,SSW,213,6.0,8.0,74,0.00,,,0.00,Wunderground v.1.15,2013-12-29 00:01:00,
2013-12-28 19:06:00,41.9,34.6,30.03,WSW,244,12.0,12.0,75,0.00,,,0.00,Wunderground v.1.15,2013-12-29 00:06:00,
2013-12-28 19:11:00,41.9,34.6,30.03,SW,221,9.0,9.0,75,0.00,,,0.00,Wunderground v.1.15,2013-12-29 00:11:00,
2013-12-28 19:16:00,41.7,34.4,30.03,SW,233,11.0,11.0,75,0.00,,,0.00,Wunderground v.1.15,2013-12-29 00:16:00,
2013-12-28 19:21:00,41.7,34.4,30.03,WSW,238,8.0,12.0,75,0.00,,,0.00,Wunderground v.1.15,2013-12-29 00:21:00,
2013-12-28 19:26:00,41.7,34.4,30.02,SW,223,7.0,12.0,75,0.00,,,0.00,Wunderground v.1.15,2013-12-29 00:26:00,
2013-12-28 19:31:00,41.6,34.3,30.02,SSW,202,8.0,11.0,75,0.00,,,0.00,Wunderground v.1.15,2013-12-29 00:31:00,
2013-12-28 19:37:00,41.4,34.4,30.02,SW,231,8.0,13.0,76,0.00,,,0.00,Wunderground v.1.15,2013-12-29 00:37:00,
2013-12-28 19:42:00,41.2,34.2,30.02,SSW,208,8.0,11.0,76,0.00,,,0.00,Wunderground v.1.15,2013-12-29 00:42:00,
2013-12-28 19:47:00,41.2,34.2,30.02,WSW,242,7.0,11.0,76,0.00,,,0.00,Wunderground v.1.15,2013-12-29 00:47:00,
2013-12-28 19:52:00,41.2,34.2,30.02,WSW,240,5.0,9.0,76,0.00,,,0.00,Wunderground v.1.15,2013-12-29 00:52:00,
2013-12-28 19:57:00,41.1,34.4,30.02,SW,219,7.0,13.0,77,0.00,,,0.00,Wunderground v.1.15,2013-12-29 00:57:00,
2013-12-28 20:02:00,40.8,34.1,30.01,SW,223,7.0,13.0,77,0.00,,,0.00,Wunderground v.1.15,2013-12-29 01:02:00,
2013-12-28 20:07:00,40.8,34.5,30.02,SW,227,8.0,14.0,78,0.00,,,0.00,Wunderground v.1.15,2013-12-29 01:07:00,
2013-12-28 20:12:00,40.6,34.3,30.01,SSW,202,5.0,10.0,78,0.00,,,0.00,Wunderground v.1.15,2013-12-29 01:12:00,
2013-12-28 20:17:00,40.6,34.3,30.01,SW,234,9.0,14.0,78,0.00,,,0.00,Wunderground v.1.15,2013-12-29 01:17:00,
2013-12-28 20:22:00,40.5,34.2,30.01,SSW,207,6.0,10.0,78,0.00,,,0.00,Wunderground v.1.15,2013-12-29 01:22:00,
2013-12-28 20:27:00,40.4,34.4,30.01,SW,225,7.0,15.0,79,0.00,,,0.00,Wunderground v.1.15,2013-12-29 01:27:00,
2013-12-28 20:32:00,40.2,34.2,30.01,WSW,247,4.0,8.0,79,0.00,,,0.00,Wunderground v.1.15,2013-12-29 01:32:00,
2013-12-28 20:37:00,40.1,34.1,30.01,SW,220,3.0,10.0,79,0.00,,,0.00,Wunderground v.1.15,2013-12-29 01:37:00,
2013-12-28 20:42:00,39.9,33.9,30.01,SW,230,11.0,11.0,79,0.00,,,0.00,Wunderground v.1.15,2013-12-29 01:42:00,
2013-12-28 20:47:00,39.8,34.1,30.01,SW,229,5.0,11.0,80,0.00,,,0.00,Wunderground v.1.15,2013-12-29 01:47:00,
2013-12-28 20:52:00,39.7,34.0,30.01,SW,222,9.0,10.0,80,0.00,,,0.00,Wunderground v.1.15,2013-12-29 01:52:00,
2013-12-28 20:57:00,39.8,34.1,30.00,WSW,249,4.0,10.0,80,0.00,,,0.00,Wunderground v.1.15,2013-12-29 01:57:00,
2013-12-28 21:02:00,39.7,34.0,29.99,SW,228,4.0,10.0,80,0.00,,,0.00,Wunderground v.1.15,2013-12-29 02:02:00,
2013-12-28 21:07:00,39.6,33.9,30.00,SW,228,4.0,10.0,80,0.00,,,0.00,Wunderground v.1.15,2013-12-29 02:07:00,
2013-12-28 21:12:00,39.5,33.8,29.99,SSW,207,4.0,7.0,80,0.00,,,0.00,Wunderground v.1.15,2013-12-29 02:12:00,
2013-12-28 21:17:00,39.4,33.7,29.99,WSW,243,6.0,11.0,80,0.00,,,0.00,Wunderground v.1.15,2013-12-29 02:17:00,
2013-12-28 21:22:00,39.3,33.6,29.99,SW,215,5.0,5.0,80,0.00,,,0.00,Wunderground v.1.15,2013-12-29 02:22:00,
2013-12-28 21:27:00,39.6,33.9,30.00,South,190,3.0,12.0,80,0.00,,,0.00,Wunderground v.1.15,2013-12-29 02:27:00,
2013-12-28 21:32:00,39.5,33.8,30.00,WSW,243,8.0,11.0,80,0.00,,,0.00,Wunderground v.1.15,2013-12-29 02:32:00,
2013-12-28 21:37:00,39.3,33.6,29.99,SW,227,5.0,11.0,80,0.00,,,0.00,Wunderground v.1.15,2013-12-29 02:37:00,
2013-12-28 21:42:00,39.2,33.5,29.99,WSW,238,9.0,9.0,80,0.00,,,0.00,Wunderground v.1.15,2013-12-29 02:42:00,
2013-12-28 21:47:00,39.2,33.5,29.99,WSW,237,7.0,13.0,80,0.00,,,0.00,Wunderground v.1.15,2013-12-29 02:47:00,
2013-12-28 21:52:00,39.2,33.5,29.99,West,265,6.0,8.0,80,0.00,,,0.00,Wunderground v.1.15,2013-12-29 02:52:00,
2013-12-28 21:57:00,39.3,33.6,29.99,SW,222,7.0,11.0,80,0.00,,,0.00,Wunderground v.1.15,2013-12-29 02:57:00,
2013-12-28 22:02:00,39.2,33.5,29.99,SW,223,6.0,12.0,80,0.00,,,0.00,Wunderground v.1.15,2013-12-29 03:02:00,
2013-12-28 22:08:00,39.2,33.5,29.98,WSW,240,5.0,12.0,80,0.00,,,0.00,Wunderground v.1.15,2013-12-29 03:08:00,
2013-12-28 22:13:00,39.2,33.5,29.97,SW,223,7.0,12.0,80,0.00,,,0.00,Wunderground v.1.15,2013-12-29 03:13:00,
2013-12-28 22:18:00,39.1,33.1,29.97,SSW,196,4.0,12.0,79,0.00,,,0.00,Wunderground v.1.15,2013-12-29 03:18:00,
2013-12-28 22:23:00,39.0,33.4,29.98,WSW,241,5.0,12.0,80,0.00,,,0.00,Wunderground v.1.15,2013-12-29 03:23:00,
2013-12-28 22:28:00,39.0,33.4,29.98,SSW,202,4.0,12.0,80,0.00,,,0.00,Wunderground v.1.15,2013-12-29 03:28:00,
2013-12-28 22:33:00,39.0,33.4,29.98,WSW,247,5.0,10.0,80,0.00,,,0.00,Wunderground v.1.15,2013-12-29 03:33:00,
2013-12-28 22:38:00,38.9,33.3,29.97,SW,220,6.0,10.0,80,0.00,,,0.00,Wunderground v.1.15,2013-12-29 03:38:00,
2013-12-28 22:43:00,38.9,33.3,29.96,SSW,212,4.0,7.0,80,0.00,,,0.00,Wunderground v.1.15,2013-12-29 03:43:00,
2013-12-28 22:48:00,38.8,33.2,29.96,SW,221,6.0,9.0,80,0.00,,,0.00,Wunderground v.1.15,2013-12-29 03:48:00,
2013-12-28 22:53:00,38.6,33.0,29.96,SW,216,7.0,9.0,80,0.00,,,0.00,Wunderground v.1.15,2013-12-29 03:53:00,
2013-12-28 22:58:00,38.6,33.0,29.96,WSW,248,6.0,9.0,80,0.00,,,0.00,Wunderground v.1.15,2013-12-29 03:58:00,
2013-12-28 23:03:00,38.5,32.9,29.96,SW,229,6.0,9.0,80,0.00,,,0.00,Wunderground v.1.15,2013-12-29 04:03:00,
2013-12-28 23:08:00,38.4,32.8,29.96,WSW,237,6.0,10.0,80,0.00,,,0.00,Wunderground v.1.15,2013-12-29 04:08:00,
2013-12-28 23:13:00,38.3,32.7,29.95,SW,223,4.0,12.0,80,0.00,,,0.00,Wunderground v.1.15,2013-12-29 04:13:00,
2013-12-28 23:18:00,38.3,32.7,29.95,SW,233,9.0,12.0,80,0.00,,,0.00,Wunderground v.1.15,2013-12-29 04:18:00,
2013-12-28 23:23:00,38.2,32.6,29.95,WSW,242,6.0,7.0,80,0.00,,,0.00,Wunderground v.1.15,2013-12-29 04:23:00,
2013-12-28 23:28:00,38.0,32.4,29.95,SW,234,6.0,8.0,80,0.00,,,0.00,Wunderground v.1.15,2013-12-29 04:28:00,
2013-12-28 23:33:00,38.0,32.4,29.95,SW,223,3.0,9.0,80,0.00,,,0.00,Wunderground v.1.15,2013-12-29 04:33:00,
2013-12-28 23:38:00,38.2,32.6,29.95,SW,214,5.0,11.0,80,0.00,,,0.00,Wunderground v.1.15,2013-12-29 04:38:00,
2013-12-28 23:43:00,38.2,32.6,29.95,SSW,213,7.0,9.0,80,0.00,,,0.00,Wunderground v.1.15,2013-12-29 04:43:00,
2013-12-28 23:48:00,38.3,32.4,29.95,SW,229,6.0,9.0,79,0.00,,,0.00,Wunderground v.1.15,2013-12-29 04:48:00,
2013-12-28 23:53:00,38.3,32.4,29.95,SW,229,7.0,9.0,79,0.00,,,0.00,Wunderground v.1.15,2013-12-29 04:53:00,
2013-12-28 23:58:00,38.3,32.4,29.94,WSW,240,8.0,13.0,79,0.00,,,0.00,Wunderground v.1.15,2013-12-29 04:58:00,